SCP
0 0 0 0 0 0 0 0 0 1 2 3 3 3 3 3 3 2 2 2 2 2 2 1 1 1 1 1 1 2 3 3 4 4 5 6 6 5 5 4 3 3 3 2
0 0 0 0 0 0 0 0 0 1 2 2 3 2 2 2 2 2 2 2 2 1 1 1 1 1 1 1 1 2 2 3 4 4 4 5 5 5 5 4 3 3 2 2
0 0 0 0 0 0 0 0 1 1 1 2 2 2 1 1 1 1 2 2 1 1 1 1 1 1 1 1 1 2 2 3 3 3 3 3 3 4 4 4 3 3 2 2
0 0 0 0 0 0 0 0 0 1 1 1 1 1 1 1 1 1 1 1 1 1 0 1 1 1 1 1 1 2 2 2 2 2 2 2 2 2 2 2 2 2 2 2
0 0 0 0 0 0 0 0 0 0 0 0 0 1 1 1 1 1 1 1 1 0 0 1 1 1 1 1 1 2 1 1 1 1 1 1 1 1 1 1 1 1 1 1
0 0 0 0 0 0 0 0 0 0 0 0 0 0 0 1 0 0 0 0 0 0 0 0 1 1 1 1 1 1 1 1 1 0 0 0 0 0 0 0 1 1 1 1
0 0 0 0 0 0 0 0 0 0 0 0 0 0 0 0 0 0 0 0 0 0 0 0 0 1 1 1 1 1 1 0 0 0 0 0 0 0 0 0 0 0 0 0
0 0 0 0 0 0 0 0 0 0 0 0 0 0 0 0 0 1 1 1 0 0 0 0 0 0 0 0 0 0 0 0 0 0 0 0 0 0 0 0 0 0 0 0
0 0 0 0 0 0 0 0 0 0 0 0 0 0 0 0 0 1 1 1 0 0 0 0 0 0 0 0 0 0 0 0 0 0 0 0 0 0 0 0 0 0 0 0
0 0 0 0 0 0 0 0 0 0 0 0 0 0 0 0 0 1 1 0 0 0 0 0 0 0 0 0 0 0 0 0 0 0 0 0 0 0 0 0 0 0 0 0
0 0 0 0 0 0 0 0 0 0 0 0 0 0 0 0 0 0 0 0 0 0 0 0 0 0 0 0 0 0 0 0 0 0 0 0 0 0 0 0 0 0 0 0
0 0 0 0 0 0 0 0 0 0 0 0 0 0 0 0 0 0 0 0 0 0 0 0 0 0 0 0 0 0 0 0 0 0 0 0 0 0 0 0 0 0 0 0
0 0 0 0 0 0 0 0 0 0 0 0 0 0 0 0 0 0 0 0 0 0 0 0 0 0 0 0 0 0 0 0 0 0 0 0 0 0 0 0 0 0 0 0
0 0 0 0 0 0 0 0 0 0 0 0 0 0 0 0 0 0 0 0 0 0 0 0 0 0 0 0 0 0 0 0 0 0 0 0 0 0 0 0 0 0 0 0
0 0 0 0 0 0 0 0 0 0 0 0 0 0 0 0 0 0 0 0 0 0 0 0 0 0 0 0 0 0 0 0 0 0 0 0 0 0 0 0 0 0 0 0
0 0 0 0 0 0 0 0 0 0 0 0 0 0 0 0 0 0 0 0 0 0 0 0 0 0 0 0 0 0 0 0 0 0 0 0 0 0 0 0 0 0 0 0
0 0 0 0 0 0 0 0 0 0 0 0 0 0 0 0 0 0 0 0 0 0 0 0 0 0 0 0 0 0 0 0 0 0 0 0 0 0 0 0 0 0 0 0
0 0 0 0 0 0 0 0 0 0 0 0 0 0 0 0 0 0 0 0 0 0 0 0 0 0 0 0 0 0 0 0 0 0 0 0 0 0 0 0 0 0 0 0
0 0 0 0 0 0 0 0 0 0 0 0 0 0 0 0 0 0 0 0 0 0 0 0 0 0 0 0 0 0 0 0 0 0 0 0 0 0 0 0 0 0 0 0
0 0 0 0 0 0 0 0 0 0 0 0 0 0 0 0 0 0 0 0 0 0 0 0 0 0 0 0 0 0 0 0 0 0 0 0 0 0 0 0 0 0 0 0
0 0 0 0 0 0 0 0 0 0 0 0 0 0 0 0 0 0 0 0 0 0 0 0 0 0 0 0 0 0 0 0 0 0 0 0 0 0 0 0 0 0 0 0
0 0 0 0 0 0 0 0 0 0 0 0 0 0 0 0 0 0 0 0 0 0 0 0 0 0 0 0 0 0 0 0 0 0 0 0 0 0 0 0 0 0 0 0
0 0 0 0 0 0 0 0 0 0 0 0 0 0 0 0 0 0 0 0 0 0 0 0 0 0 0 0 0 0 0 0 0 0 0 0 0 0 0 0 0 0 0 0
0 0 0 0 0 0 0 0 0 0 0 0 0 0 0 0 0 0 0 0 0 0 0 0 0 0 0 0 0 0 0 0 0 0 0 0 0 0 0 0 0 0 0 0
0 0 0 0 0 0 0 0 0 0 0 0 0 0 0 0 0 0 0 0 0 0 0 0 0 0 0 0 0 0 0 0 0 0 0 0 0 0 0 0 0 0 0 0
0 0 0 0 0 0 0 0 0 0 0 0 0 0 0 0 0 0 0 0 0 0 0 0 0 0 0 0 0 0 0 0 0 0 0 0 0 0 0 0 0 0 0 0
Wind_Speed
2 2 3 7 7 8 5 3 4 2 6 13 16 14 10 8 8 7 5 5 5 4 3 4 5 5 5 4 5 5 5 5 4 3 3 2 2 2 2 1 1 1 1 1
4 3 8 7 6 5 1 1 2 4 9 11 13 12 7 7 5 3 2 2 3 2 2 3 3 3 4 3 3 4 4 3 3 2 1 1 1 1 1 2 2 2 2 2
3 6 5 6 5 4 3 1 2 5 8 9 9 6 6 4 4 3 3 2 1 2 2 1 2 2 3 3 2 3 3 3 2 2 2 2 3 3 3 3 3 3 3 3
3 4 5 5 5 2 3 3 3 6 6 2 3 3 2 3 3 2 2 1 1 1 2 2 3 2 2 2 2 3 2 2 2 2 3 3 2 1 2 3 3 4 4 3
4 3 2 2 3 2 2 1 4 5 6 5 5 5 2 3 3 2 3 2 1 2 2 3 3 3 2 2 2 2 3 2 2 2 2 2 1 2 2 3 4 4 4 4
4 2 1 2 3 2 1 5 6 6 6 5 3 2 2 4 4 3 3 3 3 3 1 1 2 3 3 3 3 3 3 2 2 2 2 1 2 3 3 4 4 4 3 4
6 4 3 2 3 5 6 5 4 5 6 1 2 2 3 5 5 5 4 3 2 1 1 2 3 3 3 3 3 3 3 2 3 3 3 2 2 2 3 3 3 4 3 3
2 6 4 2 1 0 1 6 6 3 3 1 2 0 5 5 4 3 3 2 1 2 2 3 3 3 3 3 3 3 3 2 3 3 4 3 3 2 3 4 3 4 3 4
3 3 4 3 1 2 3 2 3 7 4 4 0 2 4 1 2 1 1 2 2 2 3 4 3 3 2 2 2 2 2 2 3 4 4 4 4 4 4 5 4 4 4 5
4 1 4 4 4 5 3 3 6 6 5 3 1 1 3 3 2 1 2 3 3 3 4 4 3 3 2 2 2 2 2 3 3 4 4 4 4 5 5 4 5 5 5 5
4 3 4 4 3 1 5 5 6 4 5 6 3 2 3 5 4 4 3 3 3 3 3 2 1 2 2 3 3 3 4 4 4 4 4 5 5 5 5 4 5 6 5 5
2 5 1 4 3 3 3 3 6 5 2 4 5 3 1 5 4 4 3 3 3 3 2 1 1 2 3 3 3 4 4 4 4 5 5 5 6 5 5 6 6 6 6 6
4 6 4 7 8 3 2 2 5 7 5 4 5 3 1 2 3 3 3 3 3 2 2 1 2 2 3 3 4 4 4 5 5 5 5 6 6 6 6 6 7 6 6 6
6 5 5 5 6 3 2 4 5 7 5 3 4 5 2 2 2 2 2 3 2 2 1 1 2 3 4 4 4 5 5 5 6 5 6 6 7 7 7 7 7 7 6 6
6 3 0 2 2 2 5 6 6 6 6 6 6 6 4 4 4 3 3 3 2 2 1 1 2 3 4 4 4 4 5 6 6 6 6 6 7 7 7 7 7 7 6 7
4 3 3 3 2 4 6 6 7 6 5 7 6 3 3 3 4 3 3 3 2 0 1 2 3 4 4 4 4 5 6 6 6 6 6 7 7 7 7 7 7 7 7 6
3 3 3 2 3 4 4 1 5 5 3 6 4 4 3 3 4 4 3 3 2 1 1 2 3 3 4 4 4 5 6 6 6 6 7 7 7 7 7 8 7 7 7 6
5 4 3 1 5 2 4 2 10 9 4 5 5 4 4 5 5 4 4 4 2 1 1 2 3 3 3 3 4 5 6 6 6 7 7 7 7 8 8 7 7 7 6 6
5 6 3 3 2 1 2 1 6 7 2 2 5 4 4 4 3 1 2 3 3 2 1 2 2 2 3 4 5 5 6 6 7 7 8 8 8 8 8 8 8 7 6 6
4 5 5 3 3 3 5 2 5 9 1 2 5 5 4 4 2 4 3 3 2 1 1 1 2 2 3 5 5 5 6 7 7 8 8 8 8 8 8 8 7 6 5 5
2 2 2 2 2 4 4 2 5 3 6 5 6 6 5 5 6 5 4 3 2 0 0 1 2 3 4 5 4 5 6 7 8 8 8 8 8 7 7 6 5 6 5 5
5 3 3 4 3 7 5 4 6 8 5 6 6 6 5 5 4 4 4 2 1 1 1 2 2 4 5 5 4 6 7 8 7 7 8 8 8 7 6 6 6 5 5 5
5 8 6 7 7 7 5 7 6 8 7 6 6 5 7 5 4 4 3 2 1 1 1 2 2 4 5 5 4 5 7 7 7 8 8 8 8 7 6 5 6 5 4 3
2 4 5 2 2 4 4 5 6 7 7 7 7 7 7 6 5 4 3 2 1 1 1 1 2 4 5 6 5 5 6 6 7 8 8 7 7 7 6 5 4 3 4 4
5 2 3 2 2 4 3 6 8 6 7 7 6 7 7 7 6 5 4 3 2 2 2 1 2 3 5 6 6 6 6 6 7 7 7 7 6 6 6 5 4 4 3 3
3 6 7 7 9 8 8 8 8 8 8 8 8 6 6 7 7 5 4 3 2 2 1 1 3 4 5 5 6 6 6 6 6 6 6 5 5 5 5 5 5 6 5 6
Wind_Direction
302 100 255 254 237 226 261 308 323 5 82 82 86 81 68 61 59 54 52 80 91 91 94 94 97 98 89 73 69 62 57 43 42 36 28 20 358 352 350 334 308 295 283 265
6 293 258 266 283 289 306 342 340 62 83 93 91 75 56 52 54 60 78 87 100 86 68 85 100 92 92 90 83 77 68 58 54 52 41 15 326 318 314 326 330 310 289 274
219 257 308 332 320 350 323 220 180 128 92 98 107 56 17 10 9 16 35 60 109 156 147 140 110 102 98 92 97 93 84 69 57 53 43 22 14 358 354 340 324 310 298 284
259 289 344 344 330 346 296 265 130 121 103 81 93 122 312 311 328 351 2 4 179 148 146 143 128 115 111 113 102 95 89 64 45 55 60 50 33 335 297 296 300 306 304 294
275 300 328 314 291 318 263 26 93 110 103 80 40 93 301 300 298 284 254 223 184 189 175 158 149 131 107 99 95 84 65 38 21 37 54 49 1 287 291 309 320 318 314 306
263 286 290 256 294 319 76 67 57 57 71 61 351 104 254 249 244 250 239 227 190 198 187 148 106 89 68 63 64 62 57 24 12 22 20 21 333 319 326 323 316 311 307 305
337 336 336 333 6 4 47 74 41 20 35 34 311 74 254 250 240 223 230 224 211 178 98 79 68 57 46 44 40 41 48 17 355 350 333 319 307 300 296 294 292 298 300 299
7 329 331 351 102 236 1 125 143 161 162 150 345 212 256 252 250 233 220 184 132 104 90 86 79 70 60 55 44 35 31 353 334 334 319 312 310 293 283 282 277 278 273 274
171 276 309 335 18 100 29 10 147 122 94 94 83 280 298 277 266 218 141 87 101 95 89 86 78 69 60 49 28 19 13 337 323 321 314 312 311 300 289 287 282 282 280 285
143 208 312 327 27 26 117 126 67 83 110 106 129 223 229 214 213 129 104 112 103 86 80 78 67 50 34 24 360 358 349 321 311 316 312 323 308 300 295 293 292 288 285 287
100 111 333 6 47 24 25 38 80 91 123 133 137 280 229 178 167 152 150 146 131 114 107 91 50 19 10 1 354 343 335 328 319 314 306 308 303 300 301 298 291 286 282 284
102 106 358 289 275 166 124 122 114 107 50 104 122 249 259 157 159 152 152 142 125 121 118 89 34 8 357 345 333 327 320 316 307 306 309 306 303 304 303 295 289 286 282 278
115 99 56 352 344 356 85 108 116 116 100 102 127 226 238 129 132 141 137 126 119 113 96 44 4 342 324 315 313 312 309 308 307 310 310 308 304 300 294 290 288 287 284 282
108 102 145 188 226 221 114 94 101 101 108 122 157 173 213 180 152 146 131 131 128 114 102 39 326 309 305 305 305 310 311 307 312 310 306 303 299 293 288 287 287 285 282 279
96 90 242 234 246 117 119 120 109 108 143 144 170 166 201 193 169 166 150 127 97 81 55 350 309 298 306 312 314 316 309 306 309 310 306 299 295 293 292 291 289 288 284 284
80 84 37 359 0 82 83 99 103 94 101 122 135 163 196 162 137 124 123 119 107 100 300 310 315 317 315 315 315 316 311 308 309 309 303 300 302 302 299 295 292 290 286 283
85 90 65 317 305 61 32 87 108 92 97 137 152 194 173 140 146 158 156 145 157 218 284 311 313 304 301 302 306 311 308 309 312 309 306 305 305 304 300 300 301 291 286 281
125 104 114 35 39 69 246 134 116 105 83 118 132 148 155 164 174 174 169 161 171 216 290 300 298 302 302 303 310 312 314 317 314 311 309 309 308 304 302 299 295 289 282 280
137 132 114 106 103 179 256 191 147 123 87 136 134 134 134 136 100 326 209 171 175 194 227 258 279 285 305 313 313 320 321 319 316 314 312 311 310 306 304 303 298 292 288 287
70 99 114 125 132 207 237 267 116 101 109 224 149 148 153 125 89 259 226 179 167 184 240 295 313 324 324 314 318 326 321 320 315 312 309 308 307 304 302 299 295 292 287 285
28 51 128 165 178 240 234 176 93 114 230 206 163 160 157 168 197 212 192 177 168 158 352 356 351 330 310 311 327 326 320 314 306 306 308 310 310 304 299 300 298 301 303 302
173 168 190 148 163 239 222 127 152 197 190 161 160 162 154 164 164 159 162 163 141 81 4 349 342 321 310 316 328 324 316 306 308 311 314 315 314 313 319 315 313 314 316 314
176 186 177 174 203 221 187 173 178 155 155 165 162 163 147 147 158 160 159 157 154 144 301 317 328 322 317 315 318 314 306 311 317 320 319 317 318 317 315 316 317 320 325 322
253 155 119 133 215 182 156 144 152 157 158 164 157 153 146 150 156 154 159 171 191 227 283 310 330 326 316 312 314 303 303 314 321 321 319 319 320 320 323 323 317 315 319 320
222 132 106 137 168 118 168 173 166 158 147 143 143 151 153 148 153 159 170 186 204 230 264 279 297 301 303 310 315 313 314 322 323 321 319 319 316 317 319 319 310 304 285 277
207 161 160 204 200 170 196 193 166 154 159 158 154 155 154 152 156 156 170 189 197 215 243 279 299 302 304 314 317 315 317 321 321 320 319 315 313 315 316 315 316 310 296 296